カタログに戻る

STARLINK-2338

運用中通信VLEO
NORAD 47793·PAYLOAD·🇺🇸 United States

打ち上げ Mar 11, 2021 から Cape Canaveral Space Force Station

Loading…

次のパス (今後24時間)

TLE

最新Source: CelesTrak SupGP

元期: Sep 15, 2026, 00:51 UTC

1 47793C 21018G   26258.03590278  .00015265  00000+0  49074-3 0  2582
2 47793  53.1577  77.9693 0001339  83.4514  79.4249 15.31703280    18

AllMySatでSTARLINK-2338をリアルタイム追跡

Download on the App Store